Cloud_Cover
100 100 100 100 100 100 100 100 100 100 100 100 100 32 37 26 1 0 0 0 0 0 0 0 1 0 0 4 7 55 59 22 64 91 15 4 64 66 17 5 5 8 25 4 49
100 100 100 100 100 100 100 100 100 100 100 100 100 33 31 22 11 0 0 0 0 0 0 0 48 39 3 5 6 15 100 38 100 92 83 87 84 11 55 5 6 18 54 58 8
100 100 100 100 100 100 100 100 100 100 100 100 90 24 30 26 0 0 0 0 0 0 0 1 100 46 4 0 3 40 17 13 74 82 78 77 9 2 11 3 0 100 43 71 50
100 100 100 100 100 100 100 100 100 100 100 100 50 31 0 25 0 0 0 0 0 0 0 5 87 69 5 1 4 5 5 9 59 3 3 8 6 0 0 0 0 3 0 4 95
100 100 100 100 100 100 100 100 100 100 100 99 28 29 2 0 0 0 0 0 0 0 0 3 72 69 5 3 5 5 4 7 68 4 0 2 2 0 0 2 0 2 0 1 25
100 100 100 100 100 100 100 98 100 100 100 69 28 45 7 0 0 0 0 0 0 0 0 2 5 5 5 1 17 6 5 4 1 2 5 5 4 0 0 0 2 0 5 2 6
100 100 100 100 100 100 85 12 39 100 100 37 16 13 0 0 0 0 0 0 0 0 0 0 0 3 4 5 1 5 5 0 3 3 7 5 6 5 4 0 0 0 5 96 15
100 100 100 100 100 33 1 1 33 60 47 13 48 0 0 0 0 0 0 0 0 0 0 0 0 0 0 0 4 4 4 3 3 8 5 56 1 1 0 0 0 0 16 100 100
100 100 100 100 100 25 0 0 2 23 26 0 3 0 0 0 0 0 0 0 0 0 0 0 0 0 0 0 0 0 4 4 21 49 5 49 4 3 2 4 14 3 54 65 67
100 100 100 100 100 17 0 0 0 0 3 0 0 0 0 0 0 0 0 0 0 0 0 0 0 0 0 0 1 3 5 27 60 12 73 86 5 1 5 49 21 5 3 88 99
100 100 100 100 100 68 13 0 0 0 0 0 0 0 0 0 0 0 0 0 0 0 0 0 0 0 0 0 0 5 60 8 72 52 79 70 5 3 30 100 81 5 5 26 100
100 100 100 100 100 99 45 0 0 0 0 0 0 0 0 0 0 0 0 0 0 0 0 0 0 0 0 5 0 4 5 72 89 81 82 5 5 5 5 5 5 9 33 64 100
100 100 100 100 100 50 7 0 0 0 0 0 0 0 0 0 0 0 0 0 0 0 0 0 0 0 5 1 5 4 5 38 82 68 16 94 43 5 28 7 5 4 0 22 100
100 100 100 100 16 6 0 0 0 0 0 0 0 0 0 0 0 0 0 0 0 0 0 0 0 0 0 4 5 5 37 5 12 82 58 15 48 5 4 81 74 5 5 1 1
100 100 100 98 82 0 0 0 0 0 0 0 0 0 0 0 0 0 0 0 0 0 0 0 0 0 0 0 0 5 42 48 100 59 91 88 47 16 5 5 5 5 5 1 0
100 100 100 44 94 4 0 0 0 0 0 0 0 0 0 0 0 0 0 0 0 0 0 0 0 0 0 4 1 5 5 8 33 100 67 100 96 22 4 5 5 5 5 0 0
100 100 98 26 2 0 0 0 0 0 0 0 0 0 0 0 0 0 0 0 0 0 0 0 0 0 0 0 3 4 0 3 3 47 5 5 13 5 0 1 20 4 0 0 0
100 100 97 25 0 0 0 0 0 0 0 0 0 0 0 0 0 0 0 0 0 0 0 0 0 0 0 0 4 72 5 2 0 1 5 81 4 0 0 0 89 21 5 0 0
75 99 61 6 0 0 0 0 0 0 0 0 0 0 0 0 0 0 0 0 0 0 0 0 0 0 0 4 25 8 5 2 0 0 0 0 0 4 1 6 100 88 4 0 0
0 2 0 0 0 0 0 0 0 0 0 0 0 0 0 0 0 0 0 0 0 0 0 0 0 0 0 0 0 0 4 2 0 0 0 0 0 16 100 39 90 21 5 5 5
0 0 0 0 0 0 0 1 0 0 1 4 0 0 0 0 0 0 0 0 0 0 0 0 0 0 0 0 3 2 0 2 1 0 0 0 2 36 98 95 98 99 59 7 42
8 0 0 0 0 0 0 0 0 36 5 78 0 5 1 2 0 0 0 0 0 0 0 0 0 0 0 4 4 0 4 8 94 0 0 0 3 100 100 8 8 100 74 100 100
0 0 0 0 0 0 0 0 0 5 5 5 5 2 0 0 0 0 0 0 0 0 0 0 0 0 0 0 0 0 1 5 3 23 4 0 22 38 97 48 5 100 100 100 97
0 0 0 0 0 0 0 0 0 4 5 5 12 11 4 1 0 0 0 0 0 0 0 0 0 0 0 0 0 5 0 1 47 0 5 0 60 96 100 100 31 90 100 100 79
0 0 0 0 0 0 0 0 2 5 6 5 5 5 5 3 0 0 0 0 0 0 0 0 0 0 0 1 5 7 0 4 3 4 8 2 67 40 100 84 90 68 100 100 82
0 2 6 4 0 0 0 0 2 5 5 5 3 28 1 28 75 18 100 0 0 0 0 0 0 0 0 0 5 28 5 5 3 1 0 0 6 100 100 100 100 71 85 59 18
0 0 14 6 0 0 0 0 0 5 4 5 4 0 52 22 61 100 5 51 5 0 0 5 1 0 0 0 0 0 7 5 5 5 0 0 100 100 100 100 100 50 88 100 6